Location: Geçitköy
(36.7327°N, 29.8010°E)
Time: 19:52:36
(UTC+00:00)

Spot 4 Rocket - Pass Details

Date: 12 January 2026
Orbit: 768 x 774 km, 98.8° (Epoch: 11 February)

Event Time Altitude Azimuth Distance (km) Brightness Sun altitude
Rises 16:02:08 0° 145° (SE) 3,236 7.1 -11.4°
Reaches altitude 10° 16:04:33 10° 138° (SE) 2,314 6.3 -11.8°
Maximum altitude 16:09:16 40° 70° (ENE) 1,137 4.4 -12.7°
Drops below altitude 10° 16:14:01 10° 3° (N) 2,327 6.3 -13.6°
Sets 16:16:27 0° 356° (N) 3,257 7.1 -14.1°
